Location: São Paulo
(23.5507°S, 46.6334°W)
Time: 17:26:43
(UTC-03:00)

Tiros 1 - Pass Details

Date: 14 February 2026
Orbit: 618 x 649 km, 48.4° (Epoch: 6 March)

Event Time Altitude Azimuth Distance (km) Brightness Sun altitude
Rises 05:12:23 0° 222° (SW) 2,978 10.3 -9.9°
Reaches altitude 10° 05:14:45 10° 219° (SW) 2,060 9.5 -9.4°
Maximum altitude 05:19:30 70° 135° (SE) 691 7.5 -8.4°
Drops below altitude 10° 05:24:10 10° 51° (NE) 2,028 10.2 -7.4°
Sets 05:26:29 0° 49° (NE) 2,926 11.0 -6.9°
